OneWeb SL0219

operational
NORAD ID: 48223 Int'l Des: 2021-031 Owner: ONEWEBN Country: UK Constellation: oneweb
LEOCIRCULARPOLARONEWEB_TYPE

OneWeb SL0219について

説明を読み込み中...

リアルタイム位置

3D地球を読み込み中...

次回通過

高度履歴

Altitude vs Time

uPlot chart will show altitude changes over time

軌道要素

1 48223U 21031P 25352.90035350 .00000040 00000-0 72685-4 0 9994
2 48223 87.8994 325.6181 0001527 87.2556 272.8749 13.14504000224690
Epoch: Dec 18, 2025 • Age: 19 hours

現在のステータス

高度 1212.6 km
速度 7.25 km/s
衛星直下点 48.15°N, 166.42°E
打ち上げ日 Apr 25, 2021
運用期間 4.6 years
タイプ internet

技術仕様

分類 Payload
質量 148.00 kg
乾燥質量 140.00 kg
総質量 148.00 kg
長さ 1.30 m
直径 1.00 m
スパン 5.00 m
形状 Trapezoid+2 pan
製造者 ONEWUS
バスタイプ ARROW
フェーズステータス In Orbit
所有者/国 ONEWEBN/UK

大規模コンステレーション

Loading constellations...